Weather History for Inverness, FL

Change the Weather History Date:

Monday, April 1, 2013

  Actual Average (KOCF) Record (KOCF)
Temperature  
Mean Temperature 66 °F -  
Max Temperature 80 °F 78 °F 87 °F (2005)
Min Temperature 53 °F 53 °F 32 °F (2003)
Cooling Degree Days 2    
Growing Degree Days 16 (Base 50)    
Moisture  
Dew Point 59 °F    
Average Humidity 78    
Maximum Humidity 100    
Minimum Humidity 45    
Precipitation  
Precipitation 0.00 in - - ()
Sea Level Pressure  
Sea Level Pressure 30.01 in    
Wind  
Wind Speed 2 mph (WSW)    
Max Wind Speed 12 mph    
Max Gust Speed 21 mph    
Visibility 10 miles    
Events      
Averages and records for this station are not official NWS values.
T = Trace of Precipitation, MM = Missing Value Source: NWS Daily Summary

Daily Weather History Graph

Daily Weather History Graph

Search for Another Location

Airport:

Trip Planner

Search our weather history database for the weather conditions in past years. The results will help you decide how hot, cold, wet, or windy it might be!

Date:

Astronomy

Apr. 01, 2013 Rise Set
Actual Time 7:18 AM EDT 7:47 PM EDT
Civil Twilight 6:55 AM EDT 8:11 PM EDT
Nautical Twilight 6:27 AM EDT 8:39 PM EDT
Astronomical Twilight 5:59 AM EDT 9:07 PM EDT
Moon 12:34 AM EDT (4/1) 11:24 AM EDT (4/1)
Length of Visible Light 13h 16m
Length of Day
12h 28m
Waning Gibbous, 67% of the Moon is Illuminated
Apr 1
Waning Gibbous
Apr 3
Last Quarter
Apr 10
New
Apr 18
First Quarter
Apr 25
Full

Hourly Weather History & Observations

Time (EDT) Temp. Heat Index Dew Point Humidity Pressure Visibility Wind Dir Wind Speed Gust Speed Precip Events Conditions
12:15 AM 57.2 °F - 55.4 °F 94% 30.03 in 10.0 mi Calm Calm - N/A   Clear
1:15 AM 55.4 °F - 53.6 °F 94% 30.02 in 10.0 mi Calm Calm - N/A   Clear
1:35 AM 53.6 °F - 53.6 °F 100% 30.01 in 10.0 mi Calm Calm - N/A   Clear
1:55 AM 55.4 °F - 55.4 °F 100% 30.01 in 10.0 mi Calm Calm - N/A   Clear
2:15 AM 55.4 °F - 55.4 °F 100% 30.02 in 10.0 mi Calm Calm - N/A   Clear
2:35 AM 55.4 °F - 55.4 °F 100% 30.01 in 10.0 mi Calm Calm - N/A   Clear
2:55 AM 55.4 °F - 55.4 °F 100% 30.01 in 10.0 mi Calm Calm - N/A   Clear
3:15 AM 55.4 °F - 55.4 °F 100% 30.00 in 10.0 mi Calm Calm - N/A   Clear
3:35 AM 57.2 °F - 55.4 °F 94% 30.00 in 10.0 mi Calm Calm - N/A   Clear
3:55 AM 55.4 °F - 55.4 °F 100% 29.99 in 10.0 mi Calm Calm - N/A   Clear
4:15 AM 57.2 °F - 55.4 °F 94% 29.98 in 10.0 mi Calm Calm - N/A   Clear
4:35 AM 55.4 °F - 55.4 °F 100% 29.99 in 10.0 mi Calm Calm - N/A   Clear
5:15 AM 55.4 °F - 55.4 °F 100% 30.00 in 10.0 mi Calm Calm - N/A   Clear
5:35 AM 55.4 °F - 55.4 °F 100% 30.00 in 5.0 mi Calm Calm - N/A   Clear
6:15 AM 55.4 °F - 53.6 °F 94% 30.00 in 7.0 mi Calm Calm - N/A   Clear
6:35 AM 53.6 °F - 53.6 °F 100% 30.00 in 7.0 mi Calm Calm - N/A   Clear
6:55 AM 53.6 °F - 53.6 °F 100% 30.01 in 7.0 mi Calm Calm - N/A   Clear
7:15 AM 53.6 °F - 53.6 °F 100% 30.02 in 4.0 mi Calm Calm - N/A   Clear
7:35 AM 53.6 °F - 53.6 °F 100% 30.03 in 3.0 mi Calm Calm - N/A   Scattered Clouds
7:55 AM 53.6 °F - 53.6 °F 100% 30.02 in 7.0 mi Calm Calm - N/A   Scattered Clouds
8:15 AM 55.4 °F - 55.4 °F 100% 30.03 in 10.0 mi Calm Calm - N/A   Scattered Clouds
8:35 AM 59.0 °F - 59.0 °F 100% 30.03 in 10.0 mi Calm Calm - N/A   Clear
8:55 AM 62.6 °F - 60.8 °F 94% 30.04 in 10.0 mi SSW 3.5 mph - N/A   Clear
9:15 AM 68.0 °F - 62.6 °F 83% 30.04 in 10.0 mi SSW 3.5 mph - N/A   Clear
9:35 AM 71.6 °F - 62.6 °F 73% 30.04 in 10.0 mi SSW 8.1 mph - N/A   Clear
9:55 AM 73.4 °F - 62.6 °F 69% 30.03 in 10.0 mi SSW 8.1 mph - N/A   Clear
10:15 AM 73.4 °F - 60.8 °F 65% 30.03 in 10.0 mi SW 9.2 mph - N/A   Clear
10:35 AM 75.2 °F - 60.8 °F 61% 30.03 in 10.0 mi SW 9.2 mph 18.4 mph N/A   Scattered Clouds
10:55 AM 77.0 °F - 60.8 °F 57% 30.03 in 10.0 mi WSW 6.9 mph - N/A   Scattered Clouds
11:15 AM 78.8 °F - 62.6 °F 57% 30.03 in 10.0 mi WSW 8.1 mph - N/A   Mostly Cloudy
11:35 AM 78.8 °F - 60.8 °F 54% 30.03 in 10.0 mi SW 10.4 mph 16.1 mph N/A   Mostly Cloudy
11:55 AM 78.8 °F - 60.8 °F 54% 30.03 in 10.0 mi SW 8.1 mph - N/A   Mostly Cloudy
12:15 PM 77.0 °F - 60.8 °F 57% 30.04 in 10.0 mi WSW 8.1 mph 16.1 mph N/A   Scattered Clouds
12:35 PM 77.0 °F - 60.8 °F 57% 30.03 in 10.0 mi West 9.2 mph 16.1 mph N/A   Scattered Clouds
12:55 PM 78.8 °F - 60.8 °F 54% 30.03 in 10.0 mi SW 8.1 mph 17.3 mph N/A   Scattered Clouds
1:15 PM 78.8 °F - 59.0 °F 51% 30.02 in 10.0 mi WSW 6.9 mph - N/A   Scattered Clouds
1:35 PM 77.0 °F - 60.8 °F 57% 30.02 in 10.0 mi WNW 5.8 mph - N/A   Mostly Cloudy
1:55 PM 78.8 °F - 59.0 °F 51% 30.01 in 10.0 mi WNW 5.8 mph - N/A   Mostly Cloudy
2:15 PM 80.6 °F 81.1 °F 59.0 °F 48% 30.01 in 10.0 mi West 4.6 mph - N/A   Mostly Cloudy
2:35 PM 80.6 °F 81.1 °F 59.0 °F 48% 30.00 in 10.0 mi West 6.9 mph - N/A   Overcast
2:55 PM 80.6 °F 80.8 °F 57.2 °F 45% 30.00 in 10.0 mi WSW 11.5 mph 20.7 mph N/A   Overcast
3:15 PM 78.8 °F - 59.0 °F 51% 30.00 in 10.0 mi West 4.6 mph 19.6 mph N/A   Mostly Cloudy
3:35 PM 78.8 °F - 60.8 °F 54% 29.99 in 10.0 mi West 9.2 mph 18.4 mph N/A   Mostly Cloudy
3:55 PM 78.8 °F - 60.8 °F 54% 29.99 in 10.0 mi WNW 5.8 mph - N/A   Mostly Cloudy
4:15 PM 78.8 °F - 60.8 °F 54% 29.99 in 10.0 mi West 5.8 mph - N/A   Mostly Cloudy
4:35 PM 78.8 °F - 60.8 °F 54% 29.98 in 10.0 mi WSW 4.6 mph - N/A   Overcast
4:55 PM 78.8 °F - 60.8 °F 54% 29.98 in 10.0 mi WSW 4.6 mph - N/A   Overcast
5:15 PM 77.0 °F - 60.8 °F 57% 29.98 in 10.0 mi West 4.6 mph - N/A   Scattered Clouds
5:35 PM 77.0 °F - 62.6 °F 61% 29.98 in 10.0 mi WNW 4.6 mph - N/A   Mostly Cloudy
5:55 PM 77.0 °F - 62.6 °F 61% 29.98 in 10.0 mi West 3.5 mph - N/A   Scattered Clouds
6:15 PM 77.0 °F - 62.6 °F 61% 29.98 in 10.0 mi West 6.9 mph 16.1 mph N/A   Scattered Clouds
6:35 PM 75.2 °F - 62.6 °F 65% 29.98 in 10.0 mi WSW 4.6 mph - N/A   Scattered Clouds
6:55 PM 73.4 °F - 62.6 °F 69% 29.99 in 10.0 mi West 6.9 mph - N/A   Clear
7:15 PM 71.6 °F - 62.6 °F 73% 29.99 in 10.0 mi WNW 4.6 mph - N/A   Clear
7:35 PM 71.6 °F - 62.6 °F 73% 29.99 in 10.0 mi West 3.5 mph - N/A   Clear
7:55 PM 69.8 °F - 62.6 °F 78% 29.99 in 10.0 mi Calm Calm - N/A   Clear
8:15 PM 69.8 °F - 62.6 °F 78% 30.00 in 10.0 mi Calm Calm - N/A   Clear
8:35 PM 68.0 °F - 62.6 °F 83% 30.00 in 10.0 mi Calm Calm - N/A   Clear
8:55 PM 68.0 °F - 62.6 °F 83% 30.00 in 10.0 mi Calm Calm - N/A   Clear
9:15 PM 66.2 °F - 62.6 °F 88% 30.00 in 10.0 mi Calm Calm - N/A   Clear
9:35 PM 64.4 °F - 62.6 °F 94% 30.01 in 10.0 mi Calm Calm - N/A   Clear
9:55 PM 64.4 °F - 62.6 °F 94% 30.01 in 10.0 mi SSW 3.5 mph - N/A   Clear
10:15 PM 64.4 °F - 62.6 °F 94% 30.02 in 7.0 mi SSW 4.6 mph - N/A   Clear
10:35 PM 64.4 °F - 62.6 °F 94% 30.02 in 10.0 mi SSW 3.5 mph - N/A   Clear
10:55 PM 64.4 °F - 62.6 °F 94% 30.02 in 10.0 mi SSW 3.5 mph - N/A   Clear
11:15 PM 64.4 °F - 62.6 °F 94% 30.03 in 10.0 mi Calm Calm - N/A   Clear
11:35 PM 64.4 °F - 62.6 °F 94% 30.03 in 10.0 mi SSW 4.6 mph - N/A   Clear
11:55 PM 64.4 °F - 62.6 °F 94% 30.03 in 10.0 mi Calm Calm - N/A   Clear